Novato, CA

10:05 PM PDT on September 21, 2017 (GMT -0700)
Gnoss

Weather History for KDVO - January, 2013

Change the Weather History Date:

Tuesday, January 15, 2013

  Actual Average (KAPC) Record (KAPC)
Temperature  
Mean Temperature 38 °F -  
Max Temperature 50 °F 57 °F 70 °F (2014)
Min Temperature 26 °F 40 °F 18 °F (2007)
Degree Days  
Heating Degree Days 27    
Moisture  
Dew Point 32 °F    
Average Humidity 83    
Maximum Humidity 100    
Minimum Humidity 43    
Precipitation  
Precipitation 0.00 in - - ()
Sea Level Pressure  
Sea Level Pressure 30.46 in    
Wind  
Wind Speed 1 mph (South)    
Max Wind Speed 6 mph    
Max Gust Speed -    
Visibility 9 miles    
Events Fog    
Averages and records for this station are not official NWS values.
T = Trace of Precipitation, MM = Missing Value Source: NWS Daily Summary

Daily Weather History Graph

Daily Weather History Graph

Search for Another Location

Airport or City:

Trip Planner

Search our weather history database for the weather conditions in past years. The results will help you decide how hot, cold, wet, or windy it might be!

Date:

Astronomy

Jan. 15, 2013 Rise Set
Actual Time 7:25 AM PST 5:14 PM PST
Civil Twilight 6:56 AM PST 5:43 PM PST
Nautical Twilight 6:24 AM PST 6:15 PM PST
Astronomical Twilight 5:52 AM PST 6:47 PM PST
Moon 9:38 AM PST (1/15) 10:04 PM PST (1/15)
Length of Visible Light 10h 47m
Length of Day
9h 49m
Waxing Crescent, 20% of the Moon is Illuminated
Jan 15
Waxing Crescent
Jan 18
First Quarter
Jan 26
Full
Feb 3
Last Quarter
Feb 9
New

Hourly Weather History & Observations

Time (PST) Temp. Windchill Dew Point Humidity Pressure Visibility Wind Dir Wind Speed Gust Speed Precip Events Conditions
12:15 AM 30.2 °F - 30.2 °F 100% 30.42 in 10.0 mi Calm Calm - N/A   Clear
12:35 AM 32.0 °F - 32.0 °F 100% 30.42 in 10.0 mi Calm Calm - N/A   Clear
12:55 AM 32.0 °F - 32.0 °F 100% 30.42 in 10.0 mi Calm Calm - N/A   Clear
1:15 AM 32.0 °F 28.7 °F 32.0 °F 100% 30.41 in 10.0 mi SW 3.5 mph - N/A   Clear
1:35 AM 32.0 °F - 32.0 °F 100% 30.42 in 10.0 mi Calm Calm - N/A   Clear
1:55 AM 32.0 °F - 32.0 °F 100% 30.43 in 10.0 mi Calm Calm - N/A   Clear
2:15 AM 32.0 °F - 32.0 °F 100% 30.44 in 10.0 mi Calm Calm - N/A   Clear
2:55 AM 30.2 °F - 30.2 °F 100% 30.45 in 10.0 mi Calm Calm - N/A   Clear
3:15 AM 30.2 °F - 30.2 °F 100% 30.45 in 10.0 mi Calm Calm - N/A   Clear
3:35 AM 32.0 °F 27.5 °F 32.0 °F 100% 30.44 in 10.0 mi South 4.6 mph - N/A   Clear
3:55 AM 28.4 °F - 28.4 °F 100% 30.45 in 10.0 mi Calm Calm - N/A   Clear
4:15 AM 32.0 °F 28.7 °F 32.0 °F 100% 30.45 in 10.0 mi South 3.5 mph - N/A   Clear
4:35 AM 30.2 °F - 30.2 °F 100% 30.44 in 10.0 mi Calm Calm - N/A   Clear
4:55 AM 30.2 °F - 30.2 °F 100% 30.44 in 10.0 mi Calm Calm - N/A   Clear
5:15 AM 32.0 °F 28.7 °F 32.0 °F 100% 30.44 in 10.0 mi SSE 3.5 mph - N/A   Clear
5:35 AM 28.4 °F - 28.4 °F 100% 30.44 in 9.0 mi Calm Calm - N/A   Clear
5:55 AM 26.6 °F - 26.6 °F 100% 30.45 in 1.8 mi Calm Calm - N/A   Clear
6:15 AM 30.2 °F - 30.2 °F 100% 30.46 in 10.0 mi Calm Calm - N/A   Partly Cloudy
6:35 AM 28.4 °F - 28.4 °F 100% 30.46 in 0.2 mi Calm Calm - N/A Fog Light Freezing Fog
6:55 AM 26.6 °F - 26.6 °F 100% 30.47 in 0.2 mi Calm Calm - N/A Fog Light Freezing Fog
7:15 AM 28.4 °F - 28.4 °F 100% 30.47 in 0.2 mi Calm Calm - N/A Fog Light Freezing Fog
7:35 AM 28.4 °F - 28.4 °F 100% 30.48 in 2.0 mi Calm Calm - N/A   Clear
7:55 AM 30.2 °F - 30.2 °F 100% 30.49 in 9.0 mi Calm Calm - N/A   Clear
8:15 AM 30.2 °F - 30.2 °F 100% 30.50 in 10.0 mi Calm Calm - N/A   Clear
8:35 AM 32.0 °F - 32.0 °F 100% 30.50 in 10.0 mi Calm Calm - N/A   Clear
8:55 AM 32.0 °F - 32.0 °F 100% 30.50 in 10.0 mi Calm Calm - N/A   Clear
9:15 AM 33.8 °F - 33.8 °F 100% 30.51 in 10.0 mi Calm Calm - N/A   Clear
9:35 AM 35.6 °F - 35.6 °F 100% 30.51 in 10.0 mi Calm Calm - N/A   Clear
9:55 AM 37.4 °F - 37.4 °F 100% 30.51 in 10.0 mi Calm Calm - N/A   Clear
10:15 AM 41.0 °F 39.0 °F 35.6 °F 81% 30.51 in 10.0 mi South 3.5 mph - N/A   Clear
10:35 AM 42.8 °F 39.3 °F 35.6 °F 76% 30.50 in 10.0 mi SSW 5.8 mph - N/A   Clear
10:55 AM 44.6 °F 42.2 °F 30.2 °F 57% 30.50 in 10.0 mi SSE 4.6 mph - N/A   Clear
11:15 AM 46.4 °F 44.3 °F 28.4 °F 50% 30.49 in 10.0 mi SSE 4.6 mph - N/A   Clear
11:35 AM 46.4 °F - 28.4 °F 50% 30.49 in 10.0 mi Calm Calm - N/A   Clear
11:55 AM 46.4 °F 44.3 °F 28.4 °F 50% 30.48 in 10.0 mi SE 4.6 mph - N/A   Clear
12:15 PM 46.4 °F 43.5 °F 28.4 °F 50% 30.47 in 10.0 mi SE 5.8 mph - N/A   Clear
12:35 PM 46.4 °F 43.5 °F 26.6 °F 46% 30.47 in 10.0 mi SE 5.8 mph - N/A   Clear
12:55 PM 48.2 °F - 28.4 °F 46% 30.46 in 10.0 mi ESE 3.5 mph - N/A   Clear
1:15 PM 48.2 °F - 28.4 °F 46% 30.45 in 10.0 mi SE 5.8 mph - N/A   Clear
1:35 PM 48.2 °F - 30.2 °F 50% 30.45 in 10.0 mi Calm Calm - N/A   Clear
1:55 PM 50.0 °F - 32.0 °F 50% 30.45 in 10.0 mi SSE 3.5 mph - N/A   Clear
2:15 PM 50.0 °F - 28.4 °F 43% 30.44 in 10.0 mi SSE 5.8 mph - N/A   Clear
2:35 PM 50.0 °F - 30.2 °F 47% 30.44 in 10.0 mi SE 4.6 mph - N/A   Clear
2:55 PM 50.0 °F - 30.2 °F 47% 30.44 in 10.0 mi SE 5.8 mph - N/A   Clear
3:15 PM 50.0 °F - 30.2 °F 47% 30.44 in 10.0 mi SE 5.8 mph - N/A   Clear
3:35 PM 50.0 °F - 32.0 °F 50% 30.45 in 10.0 mi South 3.5 mph - N/A   Clear
3:55 PM 50.0 °F - 32.0 °F 50% 30.45 in 10.0 mi SSE 3.5 mph - N/A   Clear
4:15 PM 48.2 °F - 32.0 °F 54% 30.45 in 10.0 mi Calm Calm - N/A   Clear
4:35 PM 48.2 °F - 32.0 °F 54% 30.45 in 10.0 mi Calm Calm - N/A   Clear
4:55 PM 46.4 °F - 33.8 °F 62% 30.45 in 10.0 mi Calm Calm - N/A   Clear
5:15 PM 44.6 °F 43.1 °F 32.0 °F 61% 30.45 in 10.0 mi WSW 3.5 mph - N/A   Clear
5:35 PM 42.8 °F 40.1 °F 32.0 °F 66% 30.45 in 10.0 mi SW 4.6 mph - N/A   Clear
5:55 PM 41.0 °F 39.0 °F 35.6 °F 81% 30.45 in 10.0 mi SSW 3.5 mph - N/A   Clear
6:15 PM 41.0 °F 39.0 °F 33.8 °F 76% 30.45 in 10.0 mi SSW 3.5 mph - N/A   Clear
6:35 PM 39.2 °F 35.9 °F 33.8 °F 81% 30.45 in 10.0 mi SSW 4.6 mph - N/A   Clear
6:55 PM 39.2 °F 35.0 °F 35.6 °F 87% 30.45 in 10.0 mi SSW 5.8 mph - N/A   Clear
7:15 PM 39.2 °F 37.0 °F 35.6 °F 87% 30.45 in 10.0 mi SW 3.5 mph - N/A   Clear
7:35 PM 37.4 °F 33.8 °F 35.6 °F 93% 30.45 in 10.0 mi SSW 4.6 mph - N/A   Unknown
7:55 PM 37.4 °F - 33.8 °F 87% 30.45 in 10.0 mi Calm Calm - N/A   Unknown
8:15 PM 35.6 °F - 35.6 °F 100% 30.44 in 8.0 mi Calm Calm - N/A   Clear
8:35 PM 35.6 °F - 35.6 °F 100% 30.44 in 9.0 mi Calm Calm - N/A   Clear
8:55 PM 35.6 °F - 35.6 °F 100% 30.44 in 10.0 mi Calm Calm - N/A   Clear
9:15 PM 35.6 °F - 33.8 °F 93% 30.45 in 10.0 mi Calm Calm - N/A   Clear
9:35 PM 35.6 °F - 32.0 °F 87% 30.44 in 10.0 mi Calm Calm - N/A   Clear
10:15 PM 32.0 °F 27.5 °F 32.0 °F 100% 30.44 in 10.0 mi SSW 4.6 mph - N/A   Clear
10:35 PM 32.0 °F - 32.0 °F 100% 30.45 in 9.0 mi Calm Calm - N/A   Clear
10:55 PM 32.0 °F - 32.0 °F 100% 30.45 in 7.0 mi Calm Calm - N/A   Clear
11:15 PM 32.0 °F - 32.0 °F 100% 30.45 in 9.0 mi Calm Calm - N/A   Clear
11:35 PM 32.0 °F 28.7 °F 32.0 °F 100% 30.45 in 10.0 mi SSW 3.5 mph - N/A   Clear
11:55 PM 35.6 °F - 33.8 °F 93% 30.45 in 10.0 mi Calm Calm - N/A   Clear